| time (UTC) | temp F | wind direction | speed MPH | gust MPH | rain 1hr in | rain 24hr in | rain mn in | humidity % | barometer mb |
| 20260901170006 | 67 | 230 | 5.0 | 17.0 | 0.00 | 0.00 | 0.00 | 63 | 1019.4 |
| 20260901165405 | 68 | 231 | 5.0 | 14.0 | 0.00 | 0.00 | 0.00 | 64 | 1019.3 |
| 20260901164504 | 68 | 237 | 6.0 | 13.0 | 0.00 | 0.00 | 0.00 | 65 | 1019.4 |
| 20260901163604 | 68 | 239 | 6.0 | 15.0 | 0.00 | 0.00 | 0.00 | 63 | 1019.5 |
| 20260901162705 | 68 | 229 | 6.0 | 14.0 | 0.00 | 0.00 | 0.00 | 63 | 1019.5 |
| 20260901161804 | 68 | 241 | 6.0 | 14.0 | 0.00 | 0.00 | 0.00 | 61 | 1019.3 |
| 20260901160904 | 69 | 236 | 7.0 | 15.0 | 0.00 | 0.00 | 0.00 | 61 | 1019.6 |
| 20260901160005 | 69 | 237 | 6.0 | 15.0 | 0.00 | 0.00 | 0.00 | 60 | 1019.6 |
| 20260901155404 | 69 | 239 | 6.0 | 16.0 | 0.00 | 0.00 | 0.00 | 61 | 1019.7 |
| 20260901154526 | 69 | 228 | 6.0 | 17.0 | 0.00 | 0.00 | 0.00 | 61 | 1019.6 |
| 20260901153606 | 69 | 240 | 6.0 | 15.0 | 0.00 | 0.00 | 0.00 | 59 | 1019.7 |
| 20260901152726 | 69 | 234 | 6.0 | 15.0 | 0.00 | 0.00 | 0.00 | 61 | 1019.8 |
| 20260901151805 | 69 | 233 | 7.0 | 18.0 | 0.00 | 0.00 | 0.00 | 60 | 1019.7 |
| 20260901150904 | 69 | 235 | 7.0 | 16.0 | 0.00 | 0.00 | 0.00 | 60 | 1019.5 |
| 20260901150004 | 69 | 243 | 6.0 | 15.0 | 0.00 | 0.00 | 0.00 | 59 | 1019.6 |
| 20260901145405 | 69 | 230 | 5.0 | 15.0 | 0.00 | 0.00 | 0.00 | 62 | 1019.5 |
| 20260901144505 | 69 | 218 | 5.0 | 14.0 | 0.00 | 0.00 | 0.00 | 61 | 1019.6 |
| 20260901143605 | 70 | 235 | 5.0 | 14.0 | 0.00 | 0.00 | 0.00 | 60 | 1019.7 |
| 20260901142703 | 70 | 221 | 5.0 | 14.0 | 0.00 | 0.00 | 0.00 | 59 | 1019.8 |
| 20260901141805 | 70 | 226 | 5.0 | 15.0 | 0.00 | 0.00 | 0.00 | 60 | 1019.7 |
| 20260901140903 | 69 | 231 | 5.0 | 14.0 | 0.00 | 0.00 | 0.00 | 60 | 1019.9 |
| 20260901140004 | 69 | 222 | 5.0 | 15.0 | 0.00 | 0.00 | 0.00 | 60 | 1019.9 |
| 20260901135403 | 69 | 223 | 5.0 | 15.0 | 0.00 | 0.00 | 0.00 | 60 | 1019.8 |
| 20260901134503 | 69 | 233 | 5.0 | 15.0 | 0.00 | 0.00 | 0.00 | 59 | 1019.7 |
| 20260901133603 | 68 | 236 | 5.0 | 13.0 | 0.00 | 0.00 | 0.00 | 61 | 1020.0 |
| 20260901132704 | 69 | 222 | 4.0 | 13.0 | 0.00 | 0.00 | 0.00 | 61 | 1019.8 |
| 20260901131803 | 69 | 220 | 5.0 | 13.0 | 0.00 | 0.00 | 0.00 | 61 | 1019.9 |
| 20260901130904 | 69 | 221 | 4.0 | 13.0 | 0.00 | 0.00 | 0.00 | 61 | 1020.2 |
| 20260901130003 | 68 | 246 | 4.0 | 13.0 | 0.00 | 0.00 | 0.00 | 62 | 1020.1 |
| 20260901125404 | 68 | 237 | 4.0 | 10.0 | 0.00 | 0.00 | 0.00 | 63 | 1020.0 |
| 20260901124504 | 69 | 228 | 4.0 | 14.0 | 0.00 | 0.00 | 0.00 | 60 | 1019.7 |
| 20260901123626 | 69 | 231 | 5.0 | 11.0 | 0.00 | 0.00 | 0.00 | 60 | 1020.1 |
| 20260901122703 | 69 | 220 | 4.0 | 11.0 | 0.00 | 0.00 | 0.00 | 59 | 1019.9 |
| 20260901121803 | 69 | 234 | 4.0 | 11.0 | 0.00 | 0.00 | 0.00 | 59 | 1020.1 |
| 20260901120925 | 69 | 230 | 4.0 | 13.0 | 0.00 | 0.00 | 0.00 | 56 | 1020.1 |
| 20260901120003 | 69 | 224 | 5.0 | 13.0 | 0.00 | 0.00 | 0.00 | 57 | 1019.9 |
| 20260901115404 | 69 | 233 | 4.0 | 11.0 | 0.00 | 0.00 | 0.00 | 57 | 1020.1 |
| 20260901114504 | 69 | 239 | 3.0 | 8.0 | 0.00 | 0.00 | 0.00 | 57 | 1019.8 |
| 20260901113605 | 68 | 247 | 3.0 | 9.0 | 0.00 | 0.00 | 0.00 | 54 | 1019.8 |
| 20260901112706 | 68 | 240 | 4.0 | 10.0 | 0.00 | 0.00 | 0.00 | 54 | 1020.1 |
| 20260901111806 | 67 | 248 | 5.0 | 11.0 | 0.00 | 0.00 | 0.00 | 55 | 1020.0 |
| 20260901110906 | 67 | 239 | 4.0 | 10.0 | 0.00 | 0.00 | 0.00 | 53 | 1020.1 |
| 20260901110005 | 67 | 241 | 3.0 | 9.0 | 0.00 | 0.00 | 0.00 | 54 | 1020.3 |
| 20260901105405 | 67 | 254 | 3.0 | 9.0 | 0.00 | 0.00 | 0.00 | 55 | 1020.2 |
| 20260901104506 | 67 | 243 | 3.0 | 9.0 | 0.00 | 0.00 | 0.00 | 56 | 1020.3 |
| 20260901103606 | 66 | 237 | 3.0 | 11.0 | 0.00 | 0.00 | 0.00 | 59 | 1020.2 |
| 20260901102705 | 66 | 232 | 3.0 | 9.0 | 0.00 | 0.00 | 0.00 | 63 | 1020.3 |
| 20260901101806 | 65 | 245 | 3.0 | 8.0 | 0.00 | 0.00 | 0.00 | 63 | 1020.4 |
| 20260901100905 | 65 | 253 | 3.0 | 8.0 | 0.00 | 0.00 | 0.00 | 61 | 1020.5 |
| 20260901100006 | 65 | 233 | 3.0 | 7.0 | 0.00 | 0.00 | 0.00 | 66 | 1020.5 |
| 20260901095405 | 64 | 237 | 3.0 | 7.0 | 0.00 | 0.00 | 0.00 | 67 | 1020.5 |
| 20260901094506 | 64 | 278 | 3.0 | 6.0 | 0.00 | 0.00 | 0.00 | 67 | 1020.6 |
| 20260901093605 | 64 | 259 | 3.0 | 6.0 | 0.00 | 0.00 | 0.00 | 68 | 1020.5 |
| 20260901092704 | 64 | 260 | 2.0 | 7.0 | 0.00 | 0.00 | 0.00 | 67 | 1020.5 |
| 20260901091804 | 64 | 255 | 2.0 | 6.0 | 0.00 | 0.00 | 0.00 | 68 | 1020.4 |
| 20260901090906 | 63 | 255 | 2.0 | 7.0 | 0.00 | 0.00 | 0.00 | 68 | 1020.6 |
| 20260901090005 | 63 | 292 | 3.0 | 7.0 | 0.00 | 0.00 | 0.00 | 68 | 1020.5 |
| 20260901085404 | 63 | 283 | 2.0 | 6.0 | 0.00 | 0.00 | 0.00 | 70 | 1020.4 |
| 20260901084505 | 63 | 243 | 2.0 | 4.0 | 0.00 | 0.00 | 0.00 | 71 | 1020.5 |
| 20260901083604 | 62 | 294 | 2.0 | 6.0 | 0.00 | 0.00 | 0.00 | 72 | 1020.5 |
| 20260901082705 | 62 | 260 | 2.0 | 4.0 | 0.00 | 0.00 | 0.00 | 74 | 1020.5 |
| 20260901081805 | 62 | 251 | 1.0 | 4.0 | 0.00 | 0.00 | 0.00 | 74 | 1020.0 |
| 20260901080905 | 62 | 272 | 2.0 | 3.0 | 0.00 | 0.00 | 0.00 | 76 | 1019.9 |
| 20260901080025 | 61 | 288 | 1.0 | 3.0 | 0.00 | 0.00 | 0.00 | 77 | 1019.9 |
| 20260901075405 | 61 | 283 | 1.0 | 3.0 | 0.00 | 0.00 | 0.00 | 77 | 1020.1 |
| 20260901074505 | 60 | 267 | 1.0 | 2.0 | 0.00 | 0.00 | 0.00 | 77 | 1019.9 |
| 20260901073604 | 60 | 289 | 2.0 | 4.0 | 0.00 | 0.00 | 0.00 | 77 | 1019.7 |
| 20260901072704 | 60 | 293 | 2.0 | 4.0 | 0.00 | 0.00 | 0.00 | 76 | 1019.6 |
| 20260901071805 | 60 | 292 | 2.0 | 4.0 | 0.00 | 0.00 | 0.00 | 76 | 1019.7 |
| 20260901070905 | 59 | 294 | 3.0 | 6.0 | 0.00 | 0.00 | 0.00 | 77 | 1019.5 |
| 20260901070005 | 59 | 290 | 3.0 | 8.0 | 0.00 | 0.00 | 0.00 | 77 | 1019.7 |
| 20260901065404 | 58 | 294 | 3.0 | 8.0 | 0.00 | 0.00 | 0.00 | 78 | 1019.5 |
| 20260901064504 | 58 | 296 | 3.0 | 6.0 | 0.00 | 0.00 | 0.00 | 79 | 1019.5 |
| 20260901063605 | 57 | 296 | 3.0 | 7.0 | 0.00 | 0.00 | 0.00 | 80 | 1019.5 |
| 20260901062726 | 57 | 293 | 4.0 | 7.0 | 0.00 | 0.00 | 0.00 | 80 | 1019.4 |
| 20260901061826 | 56 | 295 | 4.0 | 6.0 | 0.00 | 0.00 | 0.00 | 81 | 1019.2 |
| 20260901060926 | 56 | 296 | 3.0 | 6.0 | 0.00 | 0.00 | 0.00 | 81 | 1019.1 |
| 20260901060004 | 56 | 296 | 2.0 | 4.0 | 0.00 | 0.00 | 0.00 | 81 | 1019.2 |
| 20260901055405 | 56 | 295 | 3.0 | 4.0 | 0.00 | 0.00 | 0.00 | 81 | 1019.0 |
| 20260901054505 | 56 | 293 | 3.0 | 4.0 | 0.00 | 0.00 | 0.00 | 81 | 1018.7 |
| 20260901053604 | 56 | 296 | 3.0 | 4.0 | 0.00 | 0.00 | 0.00 | 80 | 1019.0 |
| 20260901052706 | 56 | 297 | 2.0 | 4.0 | 0.00 | 0.00 | 0.00 | 80 | 1019.0 |
| 20260901051804 | 56 | 296 | 3.0 | 6.0 | 0.00 | 0.00 | 0.00 | 80 | 1018.9 |
| 20260901050903 | 57 | 297 | 2.0 | 4.0 | 0.00 | 0.00 | 0.00 | 79 | 1018.9 |
| 20260901050004 | 57 | 296 | 3.0 | 6.0 | 0.00 | 0.00 | 0.00 | 79 | 1019.0 |
| 20260901045405 | 57 | 295 | 3.0 | 7.0 | 0.00 | 0.00 | 0.00 | 78 | 1018.9 |
| 20260901044506 | 57 | 293 | 4.0 | 7.0 | 0.00 | 0.00 | 0.00 | 78 | 1018.8 |
| 20260901043624 | 57 | 288 | 4.0 | 7.0 | 0.00 | 0.00 | 0.00 | 78 | 1018.8 |
| 20260901042704 | 57 | 292 | 4.0 | 6.0 | 0.00 | 0.00 | 0.00 | 79 | 1018.5 |
| 20260901041825 | 57 | 297 | 3.0 | 6.0 | 0.00 | 0.00 | 0.00 | 78 | 1018.4 |
| 20260901040903 | 58 | 293 | 2.0 | 4.0 | 0.00 | 0.00 | 0.00 | 78 | 1018.4 |
| 20260901040005 | 58 | 293 | 3.0 | 6.0 | 0.00 | 0.00 | 0.00 | 78 | 1018.3 |
| 20260901035405 | 58 | 291 | 3.0 | 6.0 | 0.00 | 0.00 | 0.00 | 78 | 1018.4 |
| 20260901034504 | 58 | 291 | 3.0 | 6.0 | 0.00 | 0.00 | 0.00 | 77 | 1018.2 |
| 20260901033604 | 58 | 293 | 3.0 | 6.0 | 0.00 | 0.00 | 0.00 | 77 | 1018.4 |
| 20260901032704 | 58 | 290 | 2.0 | 4.0 | 0.00 | 0.00 | 0.00 | 77 | 1018.2 |
| 20260901031804 | 58 | 292 | 2.0 | 4.0 | 0.00 | 0.05 | 0.00 | 77 | 1018.2 |
| 20260901030904 | 59 | 291 | 3.0 | 4.0 | 0.00 | 0.05 | 0.00 | 76 | 1018.2 |
| 20260901030025 | 59 | 293 | 3.0 | 4.0 | 0.00 | 0.05 | 0.00 | 76 | 1018.2 |
| 20260901025404 | 59 | 298 | 2.0 | 4.0 | 0.00 | 0.05 | 0.00 | 76 | 1018.1 |
| 20260901024504 | 59 | 289 | 3.0 | 4.0 | 0.00 | 0.05 | 0.00 | 76 | 1018.2 |
| 20260901023605 | 59 | 290 | 3.0 | 4.0 | 0.00 | 0.05 | 0.00 | 76 | 1018.1 |
| 20260901022706 | 59 | 293 | 3.0 | 6.0 | 0.00 | 0.05 | 0.00 | 77 | 1018.2 |
| 20260901021806 | 60 | 292 | 3.0 | 6.0 | 0.00 | 0.05 | 0.00 | 77 | 1017.9 |
| 20260901020905 | 60 | 293 | 2.0 | 4.0 | 0.00 | 0.05 | 0.00 | 78 | 1017.9 |
| 20260901020005 | 60 | 287 | 2.0 | 4.0 | 0.00 | 0.05 | 0.00 | 78 | 1018.0 |
| 20260901015405 | 60 | 292 | 2.0 | 6.0 | 0.00 | 0.06 | 0.00 | 78 | 1018.1 |
| 20260901014506 | 60 | 296 | 3.0 | 4.0 | 0.00 | 0.09 | 0.00 | 79 | 1018.2 |
| 20260901013605 | 60 | 298 | 3.0 | 4.0 | 0.00 | 0.09 | 0.00 | 79 | 1018.1 |
| 20260901012706 | 60 | 296 | 3.0 | 4.0 | 0.00 | 0.09 | 0.00 | 79 | 1017.9 |
| 20260901011827 | 60 | 294 | 3.0 | 4.0 | 0.00 | 0.09 | 0.00 | 79 | 1018.0 |
| 20260901010906 | 60 | 294 | 3.0 | 4.0 | 0.00 | 0.09 | 0.00 | 79 | 1018.2 |
| 20260901010006 | 60 | 294 | 3.0 | 4.0 | 0.00 | 0.09 | 0.00 | 79 | 1017.9 |
| 20260901005426 | 60 | 294 | 3.0 | 4.0 | 0.00 | 0.09 | 0.00 | 79 | 1018.0 |
| 20260901004505 | 60 | 298 | 2.0 | 3.0 | 0.00 | 0.09 | 0.00 | 79 | 1017.8 |
| 20260901003626 | 60 | 293 | 3.0 | 4.0 | 0.00 | 0.09 | 0.00 | 79 | 1017.9 |
| 20260901002705 | 60 | 293 | 3.0 | 4.0 | 0.00 | 0.09 | 0.00 | 78 | 1017.9 |
| 20260901001806 | 61 | 298 | 3.0 | 4.0 | 0.00 | 0.09 | 0.00 | 78 | 1017.6 |
| 20260901000905 | 61 | 296 | 2.0 | 4.0 | 0.00 | 0.09 | 0.00 | 77 | 1017.5 |
| 20260901000004 | 61 | 292 | 3.0 | 7.0 | 0.00 | 0.09 | 0.00 | 77 | 1017.7 |
| 20260831235405 | 61 | 291 | 3.0 | 6.0 | 0.00 | 0.09 | 0.00 | 77 | 1017.7 |
| 20260831234526 | 61 | 296 | 2.0 | 4.0 | 0.00 | 0.09 | 0.00 | 77 | 1017.7 |
| 20260831233605 | 61 | 298 | 2.0 | 4.0 | 0.00 | 0.09 | 0.00 | 77 | 1017.7 |
| 20260831232725 | 62 | 298 | 2.0 | 4.0 | 0.00 | 0.09 | 0.00 | 77 | 1017.7 |
| 20260831231806 | 62 | 295 | 3.0 | 4.0 | 0.00 | 0.09 | 0.00 | 77 | 1017.5 |
| 20260831230904 | 62 | 300 | 3.0 | 6.0 | 0.00 | 0.09 | 0.00 | 77 | 1017.7 |
| 20260831230027 | 62 | 298 | 3.0 | 6.0 | 0.00 | 0.09 | 0.00 | 77 | 1017.4 |
| 20260831225427 | 62 | 299 | 3.0 | 6.0 | 0.00 | 0.09 | 0.09 | 77 | 1017.5 |
| 20260831224504 | 62 | 299 | 2.0 | 6.0 | 0.00 | 0.09 | 0.09 | 78 | 1017.3 |
| 20260831223604 | 62 | 302 | 2.0 | 6.0 | 0.00 | 0.09 | 0.09 | 79 | 1017.6 |
| 20260831222705 | 62 | 296 | 1.0 | 3.0 | 0.00 | 0.09 | 0.09 | 80 | 1017.6 |
| 20260831221826 | 62 | 291 | 2.0 | 3.0 | 0.00 | 0.09 | 0.09 | 80 | 1017.3 |
| 20260831220904 | 62 | 270 | 1.0 | 3.0 | 0.00 | 0.15 | 0.09 | 80 | 1017.4 |
| 20260831220025 | 62 | 272 | 1.0 | 3.0 | 0.00 | 0.15 | 0.09 | 80 | 1017.4 |
| 20260831215426 | 62 | 270 | 1.0 | 3.0 | 0.00 | 0.15 | 0.09 | 81 | 1017.4 |
| 20260831214504 | 62 | 274 | 1.0 | 3.0 | 0.00 | 0.15 | 0.09 | 81 | 1017.2 |
| 20260831213625 | 62 | 259 | 1.0 | 4.0 | 0.00 | 0.15 | 0.09 | 81 | 1017.2 |
| 20260831212704 | 62 | 242 | 1.0 | 3.0 | 0.00 | 0.15 | 0.09 | 81 | 1017.2 |
| 20260831211805 | 63 | 243 | 1.0 | 3.0 | 0.00 | 0.15 | 0.09 | 81 | 1016.8 |
| 20260831210905 | 63 | 259 | 0.0 | 2.0 | 0.00 | 0.15 | 0.09 | 82 | 1016.8 |
| 20260831210005 | 63 | 271 | 0.0 | 2.0 | 0.00 | 0.15 | 0.09 | 81 | 1016.7 |
| 20260831205404 | 63 | 267 | 0.0 | 2.0 | 0.00 | 0.15 | 0.09 | 81 | 1016.4 |
| 20260831204504 | 63 | 283 | 1.0 | 2.0 | 0.00 | 0.15 | 0.09 | 81 | 1016.4 |
| 20260831203604 | 64 | 261 | 0.0 | 2.0 | 0.00 | 0.15 | 0.09 | 80 | 1016.3 |
| 20260831202705 | 64 | 249 | 0.0 | 1.0 | 0.00 | 0.15 | 0.09 | 79 | 1016.3 |
| 20260831201826 | 64 | 250 | 1.0 | 2.0 | 0.00 | 0.15 | 0.09 | 79 | 1016.3 |
| 20260831200925 | 65 | 299 | 1.0 | 3.0 | 0.00 | 0.15 | 0.09 | 79 | 1016.1 |
| 20260831200005 | 65 | 285 | 1.0 | 3.0 | 0.00 | 0.15 | 0.09 | 79 | 1016.3 |
| 20260831195404 | 65 | 274 | 1.0 | 2.0 | 0.00 | 0.15 | 0.09 | 79 | 1016.1 |
| 20260831194504 | 65 | 261 | 1.0 | 6.0 | 0.00 | 0.15 | 0.09 | 79 | 1016.1 |
| 20260831193605 | 65 | 261 | 1.0 | 4.0 | 0.00 | 0.15 | 0.09 | 78 | 1015.6 |
| 20260831192703 | 66 | 269 | 1.0 | 4.0 | 0.00 | 0.15 | 0.09 | 78 | 1015.7 |
| 20260831191804 | 66 | 256 | 1.0 | 4.0 | 0.00 | 0.15 | 0.09 | 79 | 1015.5 |
| 20260831190903 | 66 | 245 | 1.0 | 4.0 | 0.00 | 0.15 | 0.09 | 79 | 1015.6 |
| 20260831190004 | 66 | 267 | 1.0 | 4.0 | 0.00 | 0.15 | 0.09 | 79 | 1015.4 |
| 20260831185405 | 67 | 274 | 3.0 | 10.0 | 0.00 | 0.15 | 0.09 | 78 | 1015.2 |
| 20260831184505 | 67 | 258 | 3.0 | 9.0 | 0.00 | 0.15 | 0.09 | 77 | 1015.2 |
| 20260831183603 | 67 | 246 | 2.0 | 8.0 | 0.00 | 0.15 | 0.09 | 76 | 1015.0 |
| 20260831182703 | 67 | 241 | 2.0 | 8.0 | 0.00 | 0.15 | 0.09 | 75 | 1014.8 |
| 20260831181804 | 68 | 241 | 2.0 | 7.0 | 0.00 | 0.15 | 0.09 | 75 | 1014.7 |
| 20260831180925 | 68 | 239 | 4.0 | 10.0 | 0.00 | 0.15 | 0.09 | 74 | 1014.6 |
| 20260831180004 | 68 | 245 | 3.0 | 10.0 | 0.00 | 0.15 | 0.09 | 73 | 1014.5 |
| 20260831175403 | 68 | 247 | 4.0 | 10.0 | 0.00 | 0.15 | 0.09 | 73 | 1014.4 |
| 20260831174504 | 69 | 246 | 3.0 | 11.0 | 0.00 | 0.15 | 0.09 | 72 | 1014.4 |
| 20260831173604 | 69 | 245 | 3.0 | 9.0 | 0.00 | 0.15 | 0.09 | 71 | 1014.3 |
| 20260831172706 | 70 | 232 | 3.0 | 9.0 | 0.00 | 0.15 | 0.09 | 71 | 1014.2 |
| 20260831171805 | 71 | 252 | 3.0 | 9.0 | 0.00 | 0.15 | 0.09 | 68 | 1014.1 |
| 20260831170906 | 71 | 251 | 3.0 | 11.0 | 0.00 | 0.15 | 0.09 | 59 | 1014.1 |